EN

Hourly Weather Glenrothes

Today, 25 January, Monday

Time Temperature Precipitation Wind Pressure Humidity
00:00 -3°C° 0 mm 4 mps 739 mmHg 87%
01:00 -4°C° 0 mm 5 mps 739 mmHg 85%
02:00 -2°C° 0 mm 5 mps 739 mmHg 83%
03:00 -3°C° 0 mm 6 mps 739 mmHg 80%
04:00 -3°C° 0 mm 6 mps 739 mmHg 82%
05:00 -3°C° 0 mm 6 mps 740 mmHg 84%
06:00 -2°C° 0 mm 5 mps 740 mmHg 88%
07:00 -2°C° 0 mm 5 mps 741 mmHg 88%
08:00 -2°C° 0 mm 5 mps 741 mmHg 88%
09:00 -2°C° 0 mm 5 mps 742 mmHg 89%
10:00 -1°C° 0 mm 4 mps 742 mmHg 86%
11:00 0°C° 0 mm 4 mps 743 mmHg 82%
12:00 +1°C° 0 mm 4 mps 744 mmHg 79%
13:00 +2°C° 0 mm 3 mps 744 mmHg 80%
14:00 +2°C° 0 mm 3 mps 745 mmHg 81%
15:00 +1°C° 0 mm 3 mps 745 mmHg 83%
16:00 +1°C° 0 mm 3 mps 746 mmHg 84%
17:00 0°C° 0 mm 3 mps 746 mmHg 86%
18:00 -1°C° 0 mm 3 mps 746 mmHg 88%
19:00 -1°C° 0.1 mm 3 mps 747 mmHg 90%
20:00 -1°C° 0.1 mm 3 mps 747 mmHg 91%
21:00 -1°C° 0.1 mm 3 mps 747 mmHg 93%
22:00 -1°C° 0.9 mm 3 mps 747 mmHg 94%
23:00 -1°C° 0.9 mm 2 mps 747 mmHg 95%

Tomorrow, 26 January, Tuesday

Time Temperature Precipitation Wind Pressure Humidity
00:00 -1°C° 0.9 mm 2 mps 747 mmHg 96%
01:00 -1°C° 0.7 mm 2 mps 748 mmHg 96%
02:00 -1°C° 0.7 mm 2 mps 748 mmHg 95%
03:00 -1°C° 0.7 mm 2 mps 748 mmHg 94%
04:00 -1°C° 0.1 mm 2 mps 748 mmHg 93%
05:00 +1°C° 0.1 mm 1 mps 749 mmHg 92%
06:00 +1°C° 0.1 mm 1 mps 749 mmHg 91%
07:00 +1°C° 0.1 mm 1 mps 749 mmHg 90%
08:00 +1°C° 0.1 mm 1 mps 749 mmHg 89%
09:00 +1°C° 0.1 mm 1 mps 749 mmHg 87%
10:00 +1°C° 0 mm 1 mps 749 mmHg 87%
11:00 +1°C° 0 mm 1 mps 749 mmHg 86%
12:00 +2°C° 0 mm 1 mps 749 mmHg 85%
13:00 +2°C° 0 mm 1 mps 749 mmHg 87%
14:00 +2°C° 0 mm 1 mps 749 mmHg 88%
15:00 +1°C° 0 mm 2 mps 749 mmHg 89%
16:00 +1°C° 0.4 mm 2 mps 748 mmHg 92%
17:00 +1°C° 0.4 mm 2 mps 748 mmHg 94%
18:00 +1°C° 0.4 mm 2 mps 748 mmHg 97%
19:00 +1°C° 0.3 mm 2 mps 748 mmHg 97%
20:00 +1°C° 0.3 mm 2 mps 748 mmHg 98%
21:00 +1°C° 0.3 mm 2 mps 748 mmHg 98%
22:00 +1°C° 0.1 mm 2 mps 748 mmHg 98%
23:00 +1°C° 0.1 mm 2 mps 748 mmHg 98%

Day after tomorrow, 27 January, Wednesday

Time Temperature Precipitation Wind Pressure Humidity
00:00 +2°C° 0.1 mm 2 mps 748 mmHg 98%
01:00 +2°C° 0 mm 2 mps 748 mmHg 98%
02:00 +3°C° 0 mm 1 mps 748 mmHg 98%
03:00 +3°C° 0 mm 1 mps 748 mmHg 98%
04:00 +3°C° 0 mm 1 mps 748 mmHg 97%
05:00 +3°C° 0 mm 1 mps 748 mmHg 97%
06:00 +3°C° 0 mm 1 mps 748 mmHg 97%
07:00 +3°C° 0 mm 1 mps 748 mmHg 97%
08:00 +3°C° 0 mm 1 mps 748 mmHg 96%
09:00 +3°C° 0 mm 1 mps 748 mmHg 96%
10:00 +3°C° 0 mm 1 mps 748 mmHg 96%
11:00 +3°C° 0 mm 1 mps 748 mmHg 96%
12:00 +4°C° 0 mm 1 mps 748 mmHg 95%
13:00 +4°C° 0 mm 1 mps 748 mmHg 95%
14:00 +4°C° 0 mm 1 mps 747 mmHg 95%
15:00 +4°C° 0 mm 1 mps 747 mmHg 95%
16:00 +4°C° 0.1 mm 1 mps 746 mmHg 95%
17:00 +3°C° 0.1 mm 2 mps 746 mmHg 96%
18:00 +3°C° 0.1 mm 2 mps 745 mmHg 96%
19:00 +3°C° 0 mm 2 mps 745 mmHg 96%
20:00 +3°C° 0 mm 2 mps 744 mmHg 97%
21:00 +2°C° 0 mm 3 mps 743 mmHg 97%
22:00 +2°C° 0.6 mm 3 mps 742 mmHg 97%
23:00 +2°C° 0.6 mm 3 mps 741 mmHg 98%

28 January, Thursday

Time Temperature Precipitation Wind Pressure Humidity
00:00 +2°C° 0.6 mm 3 mps 740 mmHg 98%
01:00 +2°C° 2 mm 3 mps 739 mmHg 98%
02:00 +2°C° 2 mm 3 mps 738 mmHg 98%
03:00 +3°C° 2 mm 3 mps 737 mmHg 98%
04:00 +4°C° 1.3 mm 2 mps 737 mmHg 98%
05:00 +4°C° 1.3 mm 2 mps 736 mmHg 98%
06:00 +5°C° 1.3 mm 1 mps 736 mmHg 98%
07:00 +5°C° 0.2 mm 1 mps 736 mmHg 98%
08:00 +5°C° 0.2 mm 1 mps 736 mmHg 98%
09:00 +4°C° 0.2 mm 2 mps 736 mmHg 98%
10:00 +4°C° 0.2 mm 3 mps 736 mmHg 96%
11:00 +4°C° 0.2 mm 4 mps 736 mmHg 94%
12:00 +5°C° 0.2 mm 5 mps 736 mmHg 91%
13:00 +5°C° 0 mm 5 mps 735 mmHg 90%
14:00 +5°C° 0 mm 5 mps 735 mmHg 89%
15:00 +5°C° 0 mm 5 mps 735 mmHg 87%
16:00 +5°C° 0 mm 5 mps 734 mmHg 89%
17:00 +4°C° 0 mm 4 mps 734 mmHg 90%
18:00 +3°C° 0 mm 3 mps 734 mmHg 91%
19:00 +4°C° 0 mm 2 mps 733 mmHg 92%
20:00 +3°C° 0 mm 2 mps 733 mmHg 93%
21:00 +4°C° 0 mm 1 mps 732 mmHg 95%
22:00 +4°C° 0 mm 1 mps 733 mmHg 95%
23:00 +4°C° 0 mm 1 mps 733 mmHg 94%

29 January, Friday

Time Temperature Precipitation Wind Pressure Humidity
00:00 +3°C° 0 mm 2 mps 733 mmHg 94%
01:00 +4°C° 0.5 mm 2 mps 733 mmHg 95%
02:00 +4°C° 0.5 mm 2 mps 733 mmHg 95%
03:00 +3°C° 0.5 mm 3 mps 733 mmHg 96%
04:00 +1°C° 1.7 mm 4 mps 733 mmHg 96%
05:00 +1°C° 1.7 mm 4 mps 733 mmHg 97%
06:00 0°C° 1.7 mm 5 mps 734 mmHg 97%
07:00 -1°C° 1.8 mm 6 mps 734 mmHg 96%
08:00 -1°C° 1.8 mm 7 mps 735 mmHg 96%
09:00 -1°C° 1.8 mm 7 mps 736 mmHg 95%
10:00 -1°C° 0.1 mm 7 mps 737 mmHg 90%
11:00 -1°C° 0.1 mm 7 mps 737 mmHg 84%
12:00 -1°C° 0.1 mm 7 mps 738 mmHg 78%
13:00 -1°C° 0 mm 6 mps 739 mmHg 78%
14:00 -1°C° 0 mm 6 mps 740 mmHg 78%
15:00 0°C° 0 mm 5 mps 740 mmHg 78%
16:00 -1°C° 0 mm 5 mps 741 mmHg 79%
17:00 -2°C° 0 mm 4 mps 742 mmHg 81%
18:00 -2°C° 0 mm 3 mps 743 mmHg 82%
19:00 -2°C° 0 mm 3 mps 743 mmHg 82%
20:00 -2°C° 0 mm 3 mps 744 mmHg 82%
21:00 -4°C° 0 mm 3 mps 745 mmHg 83%
22:00 -4°C° 0 mm 3 mps 745 mmHg 83%
23:00 -2°C° 0 mm 3 mps 746 mmHg 83%

30 January, Saturday

Time Temperature Precipitation Wind Pressure Humidity
00:00 -2°C° 0 mm 3 mps 747 mmHg 83%
01:00 -2°C° 0 mm 3 mps 747 mmHg 83%
02:00 -2°C° 0 mm 2 mps 748 mmHg 83%
03:00 -2°C° 0 mm 2 mps 748 mmHg 83%
04:00 -3°C° 0 mm 2 mps 749 mmHg 82%
05:00 -3°C° 0 mm 2 mps 749 mmHg 82%
06:00 -3°C° 0 mm 2 mps 750 mmHg 82%
07:00 -2°C° 0 mm 2 mps 750 mmHg 81%
08:00 -2°C° 0 mm 2 mps 751 mmHg 81%
09:00 -2°C° 0 mm 2 mps 751 mmHg 80%
10:00 -1°C° 0 mm 2 mps 751 mmHg 78%
11:00 -1°C° 0 mm 2 mps 751 mmHg 77%
12:00 +1°C° 0 mm 2 mps 751 mmHg 75%
13:00 +1°C° 0 mm 2 mps 751 mmHg 76%
14:00 +1°C° 0 mm 2 mps 751 mmHg 77%
15:00 +1°C° 0 mm 3 mps 751 mmHg 77%
16:00 0°C° 0 mm 3 mps 751 mmHg 80%
17:00 -1°C° 0 mm 3 mps 751 mmHg 83%
18:00 -2°C° 0 mm 3 mps 750 mmHg 86%
19:00 -2°C° 0 mm 3 mps 750 mmHg 86%
20:00 -2°C° 0 mm 3 mps 749 mmHg 87%
21:00 -2°C° 0 mm 3 mps 749 mmHg 88%
22:00 -2°C° 0 mm 3 mps 748 mmHg 88%
23:00 -2°C° 0 mm 2 mps 747 mmHg 88%
Show more